Weather History for KHOP - October, 2013

Change the Weather History Date:

Tuesday, October 15, 2013

  Actual Average Record
Temperature  
Mean Temperature 67 °F -  
Max Temperature 73 °F 69 °F 83 °F (2007)
Min Temperature 61 °F 46 °F 35 °F (2006)
Cooling Degree Days 2    
Growing Degree Days 17 (Base 50)    
Moisture  
Dew Point 64 °F    
Average Humidity 90    
Maximum Humidity 100    
Minimum Humidity 65    
Precipitation  
Precipitation 0.00 in - - ()
Sea Level Pressure  
Sea Level Pressure 30.03 in    
Wind  
Wind Speed 6 mph (South)    
Max Wind Speed 15 mph    
Max Gust Speed 22 mph    
Visibility 10 miles    
Events      
Averages and records for this station are not official NWS values.
T = Trace of Precipitation, MM = Missing Value Source: NWS Daily Summary

Daily Weather History Graph

Daily Weather History Graph

Search for Another Location

Airport or City:

Trip Planner

Search our weather history database for the weather conditions in past years. The results will help you decide how hot, cold, wet, or windy it might be!

Date:

Astronomy

Oct. 15, 2013 Rise Set
Actual Time 6:57 AM CDT 6:13 PM CDT
Civil Twilight 6:31 AM CDT 6:39 PM CDT
Nautical Twilight 6:01 AM CDT 7:09 PM CDT
Astronomical Twilight 5:31 AM CDT 7:39 PM CDT
Moon 4:13 PM CDT (10/15) 3:24 AM CDT (10/15)
Length of Visible Light 12h 07m
Length of Day
11h 15m
Waxing Gibbous, 88% of the Moon is Illuminated
Oct 15
Waxing Gibbous
Oct 18
Full
Oct 26
Last Quarter
Nov 3
New
Nov 9
First Quarter

Hourly Weather History & Observations

Time (CDT) Temp. Dew Point Humidity Pressure Visibility Wind Dir Wind Speed Gust Speed Precip Events Conditions
12:50 AM 62.6 °F 62.6 °F 100% 30.11 in 10.0 mi ESE 3.5 mph - N/A   Partly Cloudy
12:58 AM 62.1 °F 62.1 °F 100% 30.11 in 9.0 mi East 2.3 mph - N/A   Scattered Clouds
1:58 AM 61.2 °F 61.2 °F 100% 30.09 in 8.0 mi East 5.8 mph - N/A   Overcast
2:58 AM 61.0 °F 61.0 °F 100% 30.07 in 7.0 mi ESE 4.6 mph - N/A   Partly Cloudy
3:58 AM 61.7 °F 61.7 °F 100% 30.05 in 8.0 mi ESE 8.1 mph - N/A   Overcast
4:32 AM 62.6 °F 62.6 °F 100% 30.05 in 10.0 mi SE 5.8 mph - N/A   Mostly Cloudy
4:58 AM 62.8 °F 62.8 °F 100% 30.06 in 10.0 mi SE 3.5 mph - N/A   Overcast
5:58 AM 63.7 °F 63.7 °F 100% 30.07 in 10.0 mi South 3.5 mph - N/A   Overcast
6:58 AM 64.4 °F 64.4 °F 100% 30.06 in 10.0 mi SSE 4.6 mph - N/A   Mostly Cloudy
7:58 AM 65.3 °F 63.9 °F 95% 30.08 in 10.0 mi South 6.9 mph - N/A   Partly Cloudy
8:58 AM 66.6 °F 64.0 °F 92% 30.09 in 10.0 mi South 9.2 mph - N/A   Clear
9:58 AM 69.1 °F 63.3 °F 82% 30.07 in 10.0 mi South 11.5 mph - N/A   Clear
10:58 AM 71.6 °F 62.2 °F 72% 30.06 in 10.0 mi South 13.8 mph 20.7 mph N/A   Partly Cloudy
11:57 AM 73.4 °F 60.8 °F 65% 30.05 in 10.0 mi SSW 15.0 mph 21.9 mph N/A   Scattered Clouds
12:58 PM 72.1 °F 61.5 °F 69% 30.04 in 10.0 mi South 9.2 mph - N/A   Partly Cloudy
1:58 PM 72.5 °F 62.2 °F 70% 30.02 in 10.0 mi SSW 8.1 mph - N/A   Scattered Clouds
2:58 PM 72.5 °F 62.1 °F 70% 30.01 in 10.0 mi SSW 10.4 mph - N/A   Partly Cloudy
3:58 PM 72.1 °F 62.4 °F 71% 30.01 in 10.0 mi SSW 6.9 mph - N/A   Scattered Clouds
4:18 PM 71.6 °F 64.4 °F 78% 30.01 in 10.0 mi South 4.6 mph - N/A   Light Drizzle
4:58 PM 69.6 °F 65.5 °F 87% 30.00 in 10.0 mi South 4.6 mph - 0.00 in   Light Drizzle
5:02 PM 69.8 °F 66.2 °F 88% 30.00 in 10.0 mi South 4.6 mph - N/A   Partly Cloudy
5:11 PM 69.8 °F 66.2 °F 88% 30.00 in 10.0 mi South 4.6 mph - N/A   Light Drizzle
5:23 PM 69.8 °F 66.2 °F 88% 29.99 in 10.0 mi SSE 5.8 mph - N/A   Scattered Clouds
5:29 PM 69.8 °F 66.2 °F 88% 29.98 in 10.0 mi SSE 5.8 mph - N/A   Light Drizzle
5:43 PM 69.8 °F 66.2 °F 88% 29.97 in 10.0 mi SSE 6.9 mph - N/A   Partly Cloudy
5:58 PM 68.9 °F 66.2 °F 91% 29.97 in 10.0 mi SE 5.8 mph - 0.00 in   Clear
6:40 PM 68.0 °F 66.2 °F 94% 29.98 in 10.0 mi South 3.5 mph - N/A   Light Drizzle
6:51 PM 68.0 °F 66.2 °F 94% 29.99 in 10.0 mi South 3.5 mph - N/A   Scattered Clouds
6:58 PM 68.2 °F 66.0 °F 93% 29.99 in 10.0 mi Variable 2.3 mph - 0.00 in   Mostly Cloudy
7:58 PM 66.9 °F 66.9 °F 100% 30.00 in 10.0 mi WSW 2.3 mph - N/A   Overcast
8:58 PM 67.1 °F 67.1 °F 100% 29.99 in 10.0 mi SSW 4.6 mph - N/A   Scattered Clouds
9:58 PM 66.7 °F 66.7 °F 100% 30.00 in 10.0 mi SW 6.9 mph - N/A   Mostly Cloudy
10:58 PM 67.1 °F 66.2 °F 97% 30.00 in 10.0 mi South 5.8 mph - N/A   Mostly Cloudy
11:58 PM 66.6 °F 66.6 °F 100% 29.97 in 10.0 mi South 5.8 mph - N/A   Partly Cloudy